Wallingford, CT

11:12 PM EDT on August 26, 2016 (GMT -0400)
Meriden Markham Municipal

Weather History for KMMK - October, 2012

Change the Weather History Date:

Wednesday, October 17, 2012

  Actual Average (KHVN) Record (KHVN)
Temperature  
Mean Temperature 46 °F -  
Max Temperature 62 °F 59 °F 78 °F (1980)
Min Temperature 32 °F 43 °F 33 °F (1978)
Degree Days  
Heating Degree Days 18    
Moisture  
Dew Point 37 °F    
Average Humidity 78    
Maximum Humidity 96    
Minimum Humidity 41    
Precipitation  
Precipitation 0.00 in - - ()
Sea Level Pressure  
Sea Level Pressure 29.97 in    
Wind  
Wind Speed 1 mph (SSE)    
Max Wind Speed 8 mph    
Max Gust Speed -    
Visibility 9 miles    
Events      
Averages and records for this station are not official NWS values.
T = Trace of Precipitation, MM = Missing Value Source: NWS Daily Summary

Daily Weather History Graph

Daily Weather History Graph

Search for Another Location

Airport or City:

Trip Planner

Search our weather history database for the weather conditions in past years. The results will help you decide how hot, cold, wet, or windy it might be!

Date:

Astronomy

Oct. 17, 2012 Rise Set
Actual Time 7:06 AM EDT 6:06 PM EDT
Civil Twilight 6:38 AM EDT 6:34 PM EDT
Nautical Twilight 6:05 AM EDT 7:06 PM EDT
Astronomical Twilight 5:33 AM EDT 7:38 PM EDT
Moon 9:39 AM EDT (10/17) 7:37 PM EDT (10/17)
Length of Visible Light 11h 56m
Length of Day
11h 00m
Waxing Crescent, 7% of the Moon is Illuminated
Oct 17
Waxing Crescent
Oct 21
First Quarter
Oct 29
Full
Nov 6
Last Quarter
Nov 13
New

Hourly Weather History & Observations

Time (EDT) Temp. Windchill Dew Point Humidity Pressure Visibility Wind Dir Wind Speed Gust Speed Precip Events Conditions
12:53 AM 37.9 °F - 36.0 °F 93% 29.93 in 10.0 mi Calm Calm - N/A   Clear
1:53 AM 35.1 °F 32.2 °F 33.1 °F 92% 29.93 in 10.0 mi SE 3.5 mph - N/A   Clear
2:53 AM 36.0 °F - 33.1 °F 89% 29.94 in 10.0 mi Calm Calm - N/A   Clear
3:53 AM 33.1 °F - 30.9 °F 92% 29.94 in 10.0 mi Calm Calm - N/A   Clear
4:40 AM 35.6 °F - 32.0 °F 87% 29.93 in 9.0 mi Calm Calm - N/A   Partly Cloudy
4:53 AM 34.0 °F - 32.0 °F 92% 29.94 in 9.0 mi Calm Calm - N/A   Partly Cloudy
5:53 AM 32.0 °F - 30.9 °F 96% 29.96 in 5.0 mi Calm Calm - N/A   Partly Cloudy
6:53 AM 33.1 °F - 32.0 °F 96% 29.97 in 9.0 mi Calm Calm - N/A   Clear
7:06 AM 33.8 °F - 30.2 °F 87% 29.97 in 9.0 mi Calm Calm - N/A   Partly Cloudy
7:11 AM 33.8 °F - 30.2 °F 87% 29.97 in 1.8 mi Calm Calm - N/A   Partly Cloudy
7:21 AM 32.0 °F - 30.2 °F 93% 29.97 in 4.0 mi Calm Calm - N/A   Scattered Clouds
7:53 AM 34.0 °F - 33.1 °F 96% 29.99 in 8.0 mi Calm Calm - N/A   Clear
8:53 AM 42.1 °F - 37.0 °F 82% 30.00 in 10.0 mi Calm Calm - N/A   Clear
9:53 AM 46.9 °F - 37.9 °F 71% 30.01 in 10.0 mi Calm Calm - N/A   Clear
10:53 AM 52.0 °F - 37.0 °F 57% 30.01 in 10.0 mi Calm Calm - N/A   Clear
11:53 AM 53.1 °F - 36.0 °F 52% 29.99 in 10.0 mi Calm Calm - N/A   Clear
12:53 PM 57.0 °F - 34.0 °F 42% 29.97 in 10.0 mi Variable 3.5 mph - N/A   Clear
1:53 PM 57.9 °F - 35.1 °F 42% 29.95 in 10.0 mi Calm Calm - N/A   Clear
2:53 PM 61.0 °F - 37.0 °F 41% 29.94 in 10.0 mi Calm Calm - N/A   Clear
3:53 PM 61.0 °F - 37.9 °F 42% 29.93 in 10.0 mi SSE 4.6 mph - N/A   Clear
4:53 PM 57.9 °F - 42.1 °F 56% 29.95 in 10.0 mi South 8.1 mph - N/A   Clear
5:53 PM 55.0 °F - 44.1 °F 67% 29.96 in 10.0 mi South 4.6 mph - N/A   Clear
6:53 PM 50.0 °F - 45.0 °F 83% 29.97 in 10.0 mi Calm Calm - N/A   Clear
7:53 PM 48.0 °F - 44.1 °F 86% 29.99 in 10.0 mi Calm Calm - N/A   Clear
8:53 PM 48.0 °F - 44.1 °F 86% 29.99 in 10.0 mi Calm Calm - N/A   Clear
9:53 PM 46.9 °F - 44.1 °F 90% 30.01 in 10.0 mi Calm Calm - N/A   Clear
10:53 PM 45.0 °F - 43.0 °F 93% 30.01 in 10.0 mi Calm Calm - N/A   Clear
11:53 PM 44.1 °F - 42.1 °F 93% 30.01 in 8.0 mi Calm Calm - N/A   Clear